When you browse on this site, cookies collect data to enhance your experience and personalize the content and advertising you see.
Visit our Privacy Policy to learn more. By continuing to use the site, you agree to this use of cookies and data.
  • In Belgium
  • List of Countries
  • For 7 days
  • Water Temperature
  • Satellite Maps
  • Weather Map
  • Weather Widgets
  • user-avatar
    Login

    Hourly Weather Scarborough

    Today, 17 December, Monday

    Time Temperature Precipitation Wind Pressure Humidity
    00:00 +3°C° 0 mm 4 mps 750 mmHg 97%
    01:00 +3°C° 0.6 mm 3 mps 751 mmHg 97%
    02:00 +3°C° 0.6 mm 3 mps 751 mmHg 96%
    03:00 +3°C° 0.6 mm 3 mps 751 mmHg 96%
    04:00 +3°C° 0.1 mm 3 mps 752 mmHg 95%
    05:00 +1°C° 0.1 mm 4 mps 752 mmHg 94%
    06:00 +1°C° 0 mm 4 mps 753 mmHg 92%
    07:00 +1°C° 0 mm 4 mps 754 mmHg 92%
    08:00 +1°C° 0 mm 4 mps 754 mmHg 92%
    09:00 +1°C° 0 mm 5 mps 755 mmHg 91%
    10:00 +3°C° 0 mm 4 mps 755 mmHg 89%
    11:00 +4°C° 0 mm 4 mps 756 mmHg 87%
    12:00 +5°C° 0 mm 4 mps 756 mmHg 84%
    13:00 +5°C° 0 mm 4 mps 756 mmHg 86%
    14:00 +5°C° 0 mm 4 mps 756 mmHg 87%
    15:00 +5°C° 0 mm 4 mps 757 mmHg 88%
    16:00 +3°C° 0 mm 5 mps 757 mmHg 89%
    17:00 +3°C° 0 mm 6 mps 757 mmHg 91%
    18:00 +3°C° 0 mm 6 mps 757 mmHg 92%
    19:00 +3°C° 0 mm 7 mps 757 mmHg 92%
    20:00 +4°C° 0 mm 7 mps 757 mmHg 92%
    21:00 +4°C° 0 mm 7 mps 756 mmHg 92%
    22:00 +5°C° 0 mm 8 mps 756 mmHg 93%
    23:00 +5°C° 0 mm 8 mps 756 mmHg 93%

    Tomorrow, 18 December, Tuesday

    Time Temperature Precipitation Wind Pressure Humidity
    00:00 +5°C° 0 mm 9 mps 756 mmHg 93%
    01:00 +6°C° 0 mm 9 mps 755 mmHg 92%
    02:00 +6°C° 0 mm 9 mps 755 mmHg 90%
    03:00 +6°C° 0 mm 9 mps 754 mmHg 89%
    04:00 +7°C° 0 mm 10 mps 754 mmHg 88%
    05:00 +7°C° 0 mm 10 mps 753 mmHg 88%
    06:00 +7°C° 0 mm 11 mps 753 mmHg 87%
    07:00 +7°C° 0 mm 11 mps 753 mmHg 86%
    08:00 +8°C° 0 mm 11 mps 752 mmHg 86%
    09:00 +8°C° 0 mm 12 mps 752 mmHg 85%
    10:00 +8°C° 0 mm 12 mps 751 mmHg 84%
    11:00 +8°C° 0 mm 13 mps 750 mmHg 82%
    12:00 +6°C° 0 mm 14 mps 750 mmHg 81%
    13:00 +6°C° 0.3 mm 14 mps 749 mmHg 81%
    14:00 +6°C° 0.3 mm 14 mps 748 mmHg 80%
    15:00 +6°C° 0.3 mm 14 mps 747 mmHg 80%
    16:00 +5°C° 0.7 mm 14 mps 747 mmHg 81%
    17:00 +5°C° 0.7 mm 14 mps 746 mmHg 83%
    18:00 +5°C° 0.7 mm 13 mps 746 mmHg 84%
    19:00 +5°C° 1.4 mm 13 mps 746 mmHg 86%
    20:00 +5°C° 1.4 mm 12 mps 746 mmHg 88%
    21:00 +4°C° 1.4 mm 11 mps 746 mmHg 91%
    22:00 +5°C° 0.7 mm 10 mps 746 mmHg 90%
    23:00 +5°C° 0.7 mm 8 mps 746 mmHg 90%

    Day after tomorrow, 19 December, Wednesday

    Time Temperature Precipitation Wind Pressure Humidity
    00:00 +5°C° 0.7 mm 7 mps 746 mmHg 90%
    01:00 +4°C° 0 mm 6 mps 746 mmHg 91%
    02:00 +4°C° 0 mm 6 mps 746 mmHg 91%
    03:00 +3°C° 0 mm 6 mps 747 mmHg 92%
    04:00 +3°C° 0 mm 6 mps 747 mmHg 92%
    05:00 +3°C° 0 mm 7 mps 747 mmHg 92%
    06:00 +3°C° 0 mm 7 mps 748 mmHg 92%
    07:00 +3°C° 0 mm 6 mps 748 mmHg 93%
    08:00 +2°C° 0 mm 6 mps 749 mmHg 93%
    09:00 +2°C° 0 mm 5 mps 749 mmHg 93%
    10:00 +3°C° 0 mm 5 mps 749 mmHg 89%
    11:00 +5°C° 0 mm 5 mps 749 mmHg 85%
    12:00 +6°C° 0 mm 5 mps 749 mmHg 81%
    13:00 +6°C° 0 mm 5 mps 749 mmHg 82%
    14:00 +5°C° 0 mm 5 mps 749 mmHg 82%
    15:00 +5°C° 0 mm 5 mps 749 mmHg 82%
    16:00 +5°C° 0 mm 5 mps 749 mmHg 84%
    17:00 +3°C° 0 mm 6 mps 749 mmHg 85%
    18:00 +3°C° 0 mm 6 mps 749 mmHg 86%
    19:00 +3°C° 0 mm 6 mps 749 mmHg 87%
    20:00 +3°C° 0 mm 6 mps 749 mmHg 87%
    21:00 +3°C° 0 mm 7 mps 749 mmHg 87%
    22:00 +2°C° 0 mm 7 mps 749 mmHg 88%
    23:00 +2°C° 0 mm 7 mps 749 mmHg 89%

    20 December, Thursday

    Time Temperature Precipitation Wind Pressure Humidity
    00:00 +2°C° 0 mm 7 mps 750 mmHg 89%
    01:00 +2°C° 0 mm 7 mps 750 mmHg 90%
    02:00 +2°C° 0 mm 7 mps 749 mmHg 90%
    03:00 +2°C° 0 mm 7 mps 749 mmHg 91%
    04:00 +2°C° 0 mm 7 mps 749 mmHg 90%
    05:00 +2°C° 0 mm 7 mps 749 mmHg 90%
    06:00 +3°C° 0 mm 7 mps 749 mmHg 89%
    07:00 +2°C° 0.2 mm 8 mps 748 mmHg 88%
    08:00 +2°C° 0.2 mm 9 mps 748 mmHg 88%
    09:00 +3°C° 0.2 mm 9 mps 748 mmHg 87%
    10:00 +3°C° 0.3 mm 9 mps 748 mmHg 85%
    11:00 +5°C° 0.3 mm 9 mps 747 mmHg 84%
    12:00 +5°C° 0.3 mm 9 mps 747 mmHg 82%
    13:00 +5°C° 0.2 mm 9 mps 747 mmHg 82%
    14:00 +5°C° 0.2 mm 8 mps 747 mmHg 82%
    15:00 +5°C° 0.2 mm 8 mps 747 mmHg 82%
    16:00 +5°C° 0 mm 8 mps 747 mmHg 83%
    17:00 +4°C° 0 mm 8 mps 748 mmHg 84%
    18:00 +4°C° 0 mm 8 mps 748 mmHg 85%
    19:00 +4°C° 0 mm 7 mps 748 mmHg 86%
    20:00 +3°C° 0 mm 7 mps 748 mmHg 86%
    21:00 +3°C° 0 mm 7 mps 748 mmHg 87%
    22:00 +3°C° 0 mm 7 mps 749 mmHg 88%
    23:00 +3°C° 0 mm 7 mps 749 mmHg 88%

    21 December, Friday

    Time Temperature Precipitation Wind Pressure Humidity
    00:00 +3°C° 0 mm 7 mps 749 mmHg 89%
    01:00 +3°C° 0 mm 6 mps 749 mmHg 90%
    02:00 +3°C° 0 mm 6 mps 749 mmHg 91%
    03:00 +3°C° 0 mm 5 mps 748 mmHg 91%
    04:00 +3°C° 0 mm 5 mps 748 mmHg 91%
    05:00 +3°C° 0 mm 5 mps 747 mmHg 91%
    06:00 +3°C° 0 mm 5 mps 747 mmHg 91%
    07:00 +3°C° 0.3 mm 6 mps 746 mmHg 92%
    08:00 +3°C° 0.3 mm 6 mps 745 mmHg 93%
    09:00 +3°C° 0.3 mm 7 mps 744 mmHg 93%
    10:00 +4°C° 1.5 mm 7 mps 744 mmHg 93%
    11:00 +4°C° 1.5 mm 6 mps 743 mmHg 92%
    12:00 +5°C° 1.5 mm 6 mps 743 mmHg 91%
    13:00 +5°C° 0.3 mm 7 mps 743 mmHg 87%
    14:00 +6°C° 0.3 mm 9 mps 744 mmHg 82%
    15:00 +6°C° 0.3 mm 10 mps 744 mmHg 77%
    16:00 +6°C° 0 mm 10 mps 744 mmHg 77%
    17:00 +6°C° 0 mm 9 mps 745 mmHg 77%
    18:00 +6°C° 0 mm 9 mps 745 mmHg 77%
    19:00 +6°C° 0 mm 9 mps 745 mmHg 79%
    20:00 +5°C° 0 mm 9 mps 746 mmHg 82%
    21:00 +5°C° 0 mm 9 mps 746 mmHg 84%
    22:00 +6°C° 0 mm 8 mps 746 mmHg 85%
    23:00 +6°C° 0 mm 8 mps 746 mmHg 86%

    22 December, Saturday

    Time Temperature Precipitation Wind Pressure Humidity
    00:00 +6°C° 0 mm 7 mps 746 mmHg 87%
    01:00 +6°C° 0 mm 7 mps 746 mmHg 87%
    02:00 +5°C° 0 mm 7 mps 747 mmHg 86%
    03:00 +5°C° 0 mm 7 mps 747 mmHg 86%
    04:00 +5°C° 0 mm 7 mps 748 mmHg 87%
    05:00 +4°C° 0 mm 7 mps 749 mmHg 87%
    06:00 +4°C° 0 mm 8 mps 750 mmHg 88%
    07:00 +4°C° 0 mm 7 mps 751 mmHg 86%
    08:00 +5°C° 0 mm 7 mps 752 mmHg 85%
    09:00 +5°C° 0 mm 7 mps 752 mmHg 83%
    10:00 +6°C° 0 mm 7 mps 753 mmHg 81%
    11:00 +6°C° 0 mm 7 mps 754 mmHg 79%
    12:00 +6°C° 0 mm 7 mps 754 mmHg 77%
    13:00 +6°C° 0 mm 7 mps 755 mmHg 78%
    14:00 +6°C° 0 mm 7 mps 755 mmHg 78%
    15:00 +7°C° 0 mm 6 mps 755 mmHg 79%
    16:00 +5°C° 0 mm 6 mps 756 mmHg 82%
    17:00 +4°C° 0 mm 6 mps 756 mmHg 85%
    18:00 +4°C° 0 mm 6 mps 756 mmHg 89%
    19:00 +4°C° 0 mm 6 mps 756 mmHg 90%
    20:00 +5°C° 0 mm 5 mps 756 mmHg 91%
    21:00 +3°C° 0 mm 5 mps 757 mmHg 92%
    22:00 +3°C° 0 mm 5 mps 756 mmHg 92%
    23:00 +5°C° 0 mm 5 mps 756 mmHg 93%
    Show more